FW0810 Weather Reports


time (UTC)temp
C
wind
direction
speed
KPH
gust
KPH
rain 1hr
cm
rain 24hr
cm
rain mn
cm
humidity
%
barometer
mb
20260505234328 16 124 0.0 1.6 0.00 0.18 0.00 83 1016.8
20260505233815 16 126 0.0 6.4 0.00 0.18 0.00 83 1016.8
20260505233311 16 134 0.0 6.4 0.00 0.18 0.00 83 1016.8
20260505232808 16 117 0.0 4.8 0.00 0.18 0.00 83 1016.8
20260505232308 16 112 0.0 4.8 0.00 0.18 0.00 83 1016.8
20260505231306 16 102 0.0 3.2 0.00 0.18 0.00 83 1016.9
20260505230804 16 103 0.0 6.4 0.00 0.18 0.00 83 1017.0
20260505230304 16 103 1.6 6.4 0.00 0.18 0.00 82 1017.1
20260505225805 16 172 0.0 6.4 0.00 0.18 0.00 82 1017.1
20260505225318 16 131 0.0 1.6 0.00 0.18 0.00 83 1017.1
20260505224810 16 138 0.0 3.2 0.00 0.18 0.00 83 1017.1
20260505224302 16 182 0.0 4.8 0.00 0.18 0.00 82 1017.2
20260505223800 16 127 0.0 4.8 0.00 0.18 0.00 82 1017.2
20260505223301 16 153 0.0 4.8 0.00 0.18 0.00 82 1017.3
20260505222259 16 142 0.0 1.6 0.00 0.18 0.00 82 1017.3
20260505221759 16 142 0.0 6.4 0.00 0.18 0.00 82 1017.3
20260505221256 16 139 0.0 6.4 0.00 0.18 0.00 82 1017.3
20260505220757 16 192 0.0 3.2 0.00 0.18 0.00 82 1017.3
20260505220258 17 192 0.0 6.4 0.00 0.18 0.00 82 1017.4
20260505215253 17 104 0.0 0.0 0.00 0.18 0.18 81 1017.5
20260505214753 17 104 0.0 1.6 0.00 0.18 0.18 81 1017.5
20260505214254 17 104 0.0 1.6 0.00 0.18 0.18 82 1017.7
20260505213753 17 27 0.0 0.0 0.00 0.18 0.18 82 1017.7
20260505213252 17 26 0.0 0.0 0.00 0.18 0.18 81 1017.7
20260505212752 17 26 0.0 0.0 0.00 0.18 0.18 82 1017.7
20260505211752 17 26 0.0 0.0 0.00 0.18 0.18 81 1017.7
20260505211253 17 26 0.0 0.0 0.00 0.18 0.18 81 1017.7
20260505210752 17 26 0.0 0.0 0.00 0.18 0.18 81 1017.9
20260505210255 17 26 0.0 0.0 0.00 0.18 0.18 81 1017.9
20260505205753 17 26 0.0 0.0 0.00 0.18 0.18 81 1017.9
20260505204753 17 29 0.0 0.0 0.00 0.18 0.18 81 1017.7
20260505204254 17 29 0.0 0.0 0.00 0.18 0.18 81 1017.8
20260505203755 17 29 0.0 0.0 0.00 0.18 0.18 81 1017.8
20260505203251 17 29 0.0 0.0 0.00 0.18 0.18 81 1017.9
20260505202751 17 29 0.0 0.0 0.00 0.18 0.18 81 1017.8
20260505202251 17 29 0.0 0.0 0.00 0.18 0.18 81 1017.8
20260505201752 17 29 0.0 0.0 0.00 0.18 0.18 81 1017.8
20260505200247 17 15 0.0 0.0 0.00 0.18 0.18 82 1017.8
20260505195744 17 1 0.0 1.6 0.00 0.18 0.18 82 1017.9
20260505195245 17 1 0.0 1.6 0.00 0.18 0.18 82 1017.9
20260505194743 17 97 0.0 0.0 0.00 0.18 0.18 82 1017.8
20260505194244 17 97 0.0 0.0 0.00 0.18 0.18 82 1017.7
20260505193739 17 171 0.0 0.0 0.00 0.18 0.18 82 1017.8
20260505192736 16 203 3.2 11.3 0.00 0.18 0.18 82 1017.5
20260505192233 16 127 1.6 11.3 0.00 0.18 0.18 82 1017.4
20260505191733 16 131 1.6 6.4 0.00 0.18 0.18 82 1017.3
20260505191228 17 247 0.0 6.4 0.00 0.18 0.18 82 1017.4
20260505190720 17 177 1.6 8.0 0.00 0.18 0.18 82 1017.3
20260505190213 17 192 1.6 8.0 0.00 0.18 0.18 82 1017.3
20260505185709 17 129 0.0 4.8 0.00 0.18 0.18 83 1017.4
20260505185205 17 93 0.0 0.0 0.00 0.18 0.18 83 1017.3
20260505184658 17 92 0.0 3.2 0.00 0.18 0.18 82 1017.3
20260505184150 17 95 0.0 3.2 0.00 0.18 0.18 82 1017.3
20260505183644 17 84 0.0 4.8 0.00 0.18 0.18 82 1017.1
20260505183140 17 158 0.0 4.8 0.00 0.18 0.18 82 1017.1
20260505182631 17 112 0.0 8.0 0.00 0.18 0.18 82 1017.2
20260505181621 17 103 0.0 17.7 0.00 0.18 0.18 82 1017.1
20260505181114 17 176 0.0 17.7 0.00 0.18 0.18 82 1017.0
20260505180609 17 176 0.0 0.0 0.00 0.18 0.18 82 1016.9
20260505180109 17 193 0.0 0.0 0.00 0.18 0.18 82 1017.1
20260505175049 17 177 1.6 14.5 0.00 0.18 0.18 81 1017.0
20260505174546 17 162 1.6 11.3 0.00 0.18 0.18 81 1016.9
20260505173532 17 110 1.6 14.5 0.00 0.18 0.18 80 1017.1
20260505173028 17 153 1.6 14.5 0.00 0.18 0.18 80 1017.2
20260505172529 17 284 1.6 6.4 0.00 0.18 0.18 80 1017.1
20260505172026 17 122 1.6 11.3 0.00 0.18 0.18 80 1017.1
20260505171524 17 173 1.6 11.3 0.00 0.18 0.18 80 1016.9
20260505171026 17 122 0.0 8.0 0.00 0.18 0.18 80 1017.1
20260505170524 17 208 1.6 12.9 0.00 0.18 0.18 80 1017.1
20260505170027 17 135 0.0 12.9 0.00 0.18 0.18 80 1017.1
20260505165522 17 109 0.0 3.2 0.00 0.18 0.18 80 1017.0
20260505165023 17 78 0.0 3.2 0.00 0.18 0.18 80 1017.0
20260505164021 17 266 0.0 6.4 0.00 0.18 0.18 80 1017.0
20260505163521 17 91 0.0 6.4 0.00 0.18 0.18 80 1016.9
20260505163021 17 108 0.0 3.2 0.00 0.18 0.18 80 1016.9
20260505162522 17 106 0.0 8.0 0.00 0.18 0.18 80 1017.1
20260505162019 17 141 1.6 17.7 0.00 0.18 0.18 79 1017.1
20260505161516 17 179 3.2 17.7 0.00 0.18 0.18 79 1017.2
20260505161020 18 285 3.2 19.3 0.00 0.18 0.18 79 1017.3
20260505160516 18 160 3.2 19.3 0.00 0.18 0.18 79 1017.2
20260505153014 18 262 1.6 11.3 0.03 0.18 0.18 78 1017.4
20260505152512 18 260 1.6 8.0 0.03 0.18 0.18 79 1017.4
20260505152013 18 188 1.6 11.3 0.03 0.18 0.18 79 1017.4
20260505151510 18 217 1.6 11.3 0.03 0.18 0.18 79 1017.4
20260505151008 18 305 3.2 16.1 0.03 0.18 0.18 79 1017.3
20260505140458 17 144 0.0 3.2 0.00 0.15 0.15 79 1017.5
20260505124948 17 165 0.0 11.3 0.00 0.15 0.15 78 1018.0
20260505123947 17 286 0.0 3.2 0.00 0.15 0.15 77 1018.2
20260505123446 17 116 0.0 9.7 0.00 0.15 0.15 78 1018.2
20260505122956 17 116 1.6 9.7 0.00 0.15 0.15 77 1018.2
20260505122442 17 208 1.6 16.1 0.00 0.15 0.15 77 1018.3
20260505121943 17 145 1.6 16.1 0.00 0.15 0.15 77 1018.2
20260505121443 17 44 0.0 6.4 0.00 0.15 0.15 77 1018.3
20260505120942 17 90 0.0 4.8 0.00 0.15 0.15 78 1018.2
20260505120443 17 93 0.0 4.8 0.00 0.15 0.15 77 1018.2
20260505115940 17 284 0.0 4.8 0.00 0.15 0.15 78 1018.3
20260505115440 16 342 1.6 4.8 0.00 0.15 0.15 78 1018.3
20260505113940 16 351 1.6 11.3 0.00 0.15 0.15 77 1018.5
20260505112941 16 336 1.6 9.7 0.00 0.15 0.15 77 1018.5
20260505112438 16 262 0.0 4.8 0.00 0.15 0.15 78 1018.5
20260505111938 16 259 1.6 19.3 0.00 0.15 0.15 78 1018.5
20260505111439 16 105 1.6 19.3 0.00 0.15 0.15 77 1018.6
20260505110938 16 1 1.6 9.7 0.00 0.15 0.15 78 1018.6
20260505110438 16 239 1.6 11.3 0.00 0.15 0.15 79 1018.5
20260505101928 16 255 0.0 4.8 0.00 0.15 0.15 81 1018.7
20260505101426 16 255 1.6 8.0 0.00 0.15 0.15 81 1018.7
20260505100926 15 269 1.6 9.7 0.00 0.15 0.15 80 1018.7
20260505100438 15 72 0.0 9.7 0.00 0.15 0.15 82 1018.6
20260505095422 15 20 0.0 1.6 0.00 0.15 0.15 84 1018.6
20260505094922 15 11 0.0 6.4 0.00 0.15 0.15 84 1018.7
20260505094420 15 100 1.6 9.7 0.00 0.15 0.15 84 1018.7
20260505093919 15 358 3.2 9.7 0.00 0.15 0.15 84 1018.7
20260505093417 15 75 3.2 8.0 0.00 0.15 0.15 84 1018.9
20260505091353 15 91 0.0 3.2 0.00 0.15 0.15 85 1018.6
20260505090848 15 91 0.0 8.0 0.00 0.15 0.15 85 1018.5
20260505090343 15 93 0.0 8.0 0.00 0.15 0.15 85 1018.6
20260505085838 15 84 0.0 9.7 0.00 0.15 0.15 85 1018.6
20260505085331 15 84 1.6 9.7 0.00 0.15 0.15 86 1018.6
20260505084823 15 112 3.2 9.7 0.00 0.15 0.15 85 1018.5
20260505084318 15 77 1.6 9.7 0.00 0.15 0.15 86 1018.5
20260505083812 15 105 1.6 6.4 0.00 0.15 0.15 86 1018.5
20260505082801 14 203 0.0 8.0 0.00 0.15 0.15 86 1018.4
20260505082251 14 89 1.6 11.3 0.00 0.15 0.15 87 1018.4
20260505080733 14 84 1.6 6.4 0.00 0.15 0.15 87 1018.3
20260505080227 14 94 1.6 6.4 0.00 0.15 0.15 87 1018.5
20260505075721 14 94 1.6 11.3 0.00 0.15 0.15 86 1018.3
20260505075216 14 84 1.6 11.3 0.00 0.15 0.15 86 1018.5
20260505074709 14 88 3.2 9.7 0.00 0.15 0.15 87 1018.5
20260505074206 14 72 1.6 8.0 0.00 0.15 0.15 87 1018.3
20260505073659 14 62 0.0 6.4 0.00 0.15 0.15 87 1018.4
20260505072139 14 273 1.6 8.0 0.00 0.15 0.15 87 1018.6
20260505071635 14 97 0.0 8.0 0.00 0.15 0.15 87 1018.5
20260505071127 14 82 0.0 0.0 0.00 0.15 0.15 88 1018.6
20260505070621 13 82 1.6 8.0 0.00 0.15 0.15 88 1018.5
20260505070118 13 82 1.6 8.0 0.00 0.15 0.15 88 1018.6
20260505065612 13 82 0.0 6.4 0.00 0.15 0.15 88 1018.4
20260505065109 13 79 0.0 4.8 0.00 0.15 0.15 88 1018.6
20260505064609 13 86 0.0 3.2 0.00 0.15 0.15 88 1018.5
20260505063607 13 112 0.0 1.6 0.03 0.15 0.15 88 1018.4
20260505063107 13 113 0.0 1.6 0.03 0.15 0.15 88 1018.4
20260505062103 13 28 0.0 6.4 0.03 0.15 0.15 88 1018.5
20260505061603 13 13 0.0 8.0 0.03 0.15 0.15 88 1018.4
20260505061102 13 55 0.0 8.0 0.03 0.15 0.15 89 1018.3
20260505060111 13 67 0.0 8.0 0.03 0.15 0.15 89 1018.2
20260505055555 13 64 0.0 8.0 0.03 0.15 0.15 89 1018.3
20260505055053 13 91 0.0 0.0 0.03 0.15 0.15 90 1018.2
20260505054051 13 99 0.0 0.0 0.05 0.15 0.15 89 1018.4
20260505053049 13 99 0.0 0.0 0.03 0.15 0.15 90 1018.3
20260505052602 13 102 0.0 0.0 0.03 0.15 0.15 90 1018.2
20260505051550 13 102 0.0 0.0 0.03 0.15 0.15 90 1018.2
20260505051043 13 102 0.0 0.0 0.03 0.15 0.15 90 1018.1
20260505050536 13 102 0.0 0.0 0.05 0.15 0.15 90 1018.1
20260505041501 13 96 0.0 3.2 0.10 0.13 0.13 89 1018.1
20260505040959 13 95 0.0 3.2 0.10 0.13 0.13 89 1017.9
20260505040457 13 94 0.0 0.0 0.08 0.10 0.10 88 1017.9
20260505035955 13 94 0.0 0.0 0.05 0.08 0.08 88 1018.1
20260505034954 13 94 0.0 3.2 0.08 0.08 0.08 87 1018.1
20260505034455 13 95 0.0 3.2 0.05 0.05 0.05 87 1018.1
20260505033955 13 95 0.0 3.2 0.05 0.05 0.05 86 1018.1
20260505033454 13 97 0.0 3.2 0.05 0.05 0.05 86 1018.3
20260505032953 13 90 0.0 0.0 0.05 0.05 0.05 86 1018.2
20260505032451 13 90 0.0 0.0 0.05 0.05 0.05 85 1018.3
20260505031949 13 90 0.0 0.0 0.05 0.05 0.05 84 1018.3
20260505031449 13 89 0.0 0.0 0.03 0.03 0.03 83 1018.4
20260505030949 13 89 0.0 0.0 0.03 0.03 0.03 83 1018.5
20260505025945 13 91 0.0 0.0 0.03 0.03 0.03 83 1018.4
20260505025445 13 83 0.0 1.6 0.03 0.03 0.03 84 1018.6
20260505024945 13 96 0.0 1.6 0.00 0.00 0.00 83 1018.7
20260505024443 13 98 0.0 0.0 0.00 0.00 0.00 84 1018.7
20260505023941 13 98 0.0 0.0 0.00 0.00 0.00 84 1018.7
20260505023440 13 98 0.0 0.0 0.00 0.00 0.00 85 1018.8
20260505022942 13 98 0.0 4.8 0.00 0.00 0.00 84 1018.8
20260505022438 13 98 0.0 4.8 0.00 0.00 0.00 85 1018.9
20260505021937 13 161 0.0 0.0 0.00 0.00 0.00 85 1019.0
20260505021439 13 162 0.0 0.0 0.00 0.00 0.00 85 1019.0
20260505020936 13 162 0.0 0.0 0.00 0.00 0.00 85 1018.9
20260505020438 13 162 0.0 0.0 0.00 0.00 0.00 85 1019.0
20260505015937 13 162 0.0 0.0 0.00 0.00 0.00 85 1019.0
20260505014937 13 162 0.0 0.0 0.00 0.00 0.00 85 1019.1
20260505013937 13 162 0.0 0.0 0.00 0.00 0.00 84 1019.0
20260505013438 14 162 0.0 0.0 0.00 0.00 0.00 84 1019.1
20260505012933 14 162 0.0 0.0 0.00 0.00 0.00 83 1019.2
20260505012433 14 162 0.0 0.0 0.00 0.00 0.00 82 1019.2
20260505011933 14 162 0.0 0.0 0.00 0.00 0.00 82 1019.3
20260505011434 14 162 0.0 0.0 0.00 0.00 0.00 81 1019.4
20260505010933 14 162 0.0 0.0 0.00 0.00 0.00 81 1019.4
20260505010433 14 162 0.0 0.0 0.00 0.00 0.00 80 1019.5
20260505005433 14 162 0.0 0.0 0.00 0.00 0.00 80 1019.6
20260505004933 14 162 0.0 0.0 0.00 0.00 0.00 80 1019.6
20260505004429 14 162 0.0 0.0 0.00 0.00 0.00 81 1019.6
20260505003929 14 162 0.0 0.0 0.00 0.00 0.00 81 1019.7
20260505003428 14 162 0.0 0.0 0.00 0.00 0.00 81 1019.7
20260505002933 14 162 0.0 0.0 0.00 0.00 0.00 81 1019.7
20260505002428 14 162 0.0 0.0 0.00 0.00 0.00 81 1019.6
20260505001427 14 162 0.0 0.0 0.00 0.00 0.00 82 1019.8
20260505000925 14 162 0.0 0.0 0.00 0.00 0.00 81 1019.8
20260505000427 15 162 0.0 0.0 0.00 0.00 0.00 80 1020.0
20260504235921 15 162 0.0 0.0 0.00 0.00 0.00 79 1020.2
20260504235419 15 162 0.0 0.0 0.00 0.00 0.00 78 1020.3
20260504234921 15 162 0.0 0.0 0.00 0.00 0.00 78 1020.4